This demonstration page uses our WeatherBlox Daily Observations layout. Learn more.

Left ArrowRight Arrow

38.20091, -84.87328

Hourly Observations for August 24, 2018

Temp ( °F °C ) Dew Point ( °F °C ) Humidity (%) Winds ( mph kmh ) Pressure ( in mb ) Visibility ( mi km ) Precip ( " mm )
12:53 am 00:53 Clear 61 16.1 57 13.9 87 87 Calm 30.10 1019 10 16 0.00 0.00
1:53 am 01:53 Clear 59 15 56 13.3 90 90 Calm 30.10 1019 10 16 0.00 0.00
2:53 am 02:53 Clear 58 14.4 56 13.3 93 93 N 3 6 30.09 1019 10 16 0.00 0.00
3:53 am 03:53 Clear 57 13.9 55 12.8 93 93 Calm 30.09 1019 10 16 0.00 0.00
4:53 am 04:53 Clear 56 13.3 54 12.2 93 93 Calm 30.07 1018 10 16 0.00 0.00
5:53 am 05:53 Clear 54 12.2 53 11.7 97 97 Calm 30.08 1019 10 16 0.00 0.00
6:53 am 06:53 Clear 55 12.8 53 11.7 93 93 Calm 30.09 1019 10 16 0.00 0.00
7:53 am 07:53 Sunny 56 13.3 54 12.2 93 93 Calm 30.10 1019 10 16 0.00 0.00
8:53 am 08:53 Sunny 63 17.2 57 13.9 81 81 SSE 3 6 30.11 1020 10 16 0.00 0.00
9:53 am 09:53 Sunny 68 20 58 14.4 70 70 SSE 8 13 30.11 1020 10 16 0.00 0.00
10:53 am 10:53 Sunny 73 22.8 60 15.6 64 64 S 8 13 30.11 1020 10 16 0.00 0.00
11:53 am 11:53 Sunny 77 25 60 15.6 56 56 SSW 14 22 30.12 1020 10 16 0.00 0.00
12:53 pm 12:53 Sunny 78 25.6 61 16.1 56 56 SSW 16 26 30.12 1020 10 16 0.00 0.00
1:53 pm 13:53 Partly Cloudy 79 26.1 61 16.1 54 54 SW 13 20 30.11 1020 10 16 0.00 0.00
2:53 pm 14:53 Sunny 79 26.1 63 17.2 58 58 SW 9 15 30.11 1020 10 16 0.00 0.00
3:53 pm 15:53 Sunny 78 25.6 61 16.1 56 56 SW 10 17 30.09 1019 10 16 0.00 0.00
4:53 pm 16:53 Sunny 77 25 62 16.7 60 60 SW 8 13 30.08 1019 10 16 0.00 0.00
5:53 pm 17:53 Sunny 77 25 63 17.2 62 62 S 8 13 30.06 1018 10 16 0.00 0.00
6:53 pm 18:53 Mostly Cloudy 76 24.4 63 17.2 64 64 S 7 11 30.05 1018 10 16 0.00 0.00
7:53 pm 19:53 Sunny 75 23.9 64 17.8 69 69 S 7 11 30.05 1018 10 16 0.00 0.00
8:53 pm 20:53 Mostly Cloudy 72 22.2 65 18.3 79 79 Calm 30.06 1018 10 16 0.00 0.00
9:53 pm 21:53 Mostly Cloudy 71 21.7 65 18.3 81 81 SE 7 11 30.06 1018 10 16 0.00 0.00
10:53 pm 22:53 Clear 70 21.1 65 18.3 84 84 SSE 5 7 30.05 1018 10 16 0.00 0.00
11:53 pm 23:53 Clear 70 21.1 64 17.8 82 82 SSE 6 9 30.06 1018 10 16 0.00 0.00

Powered by AerisWeather